GFSWCAN_2pvu_pres_144.txt.gz
Presure
422 461 426 429 352 343 338 340 336 333 327 327 329 329 338 341 352 340 310 298 294 284 283 283 276 267 264 264 269 276 277 279 278 271 248 240 241 233 236 236 241 241 238 236 237 238 239 243 253 354 316 293 286 284
422 422 425 429 337 341 330 312 325 332 313 334 345 336 337 333 340 360 334 313 305 291 291 288 278 269 268 264 260 260 260 269 277 278 274 264 252 258 254 244 240 235 236 237 248 254 264 266 360 308 290 281 288 286
423 413 401 396 342 324 321 311 308 308 326 316 320 327 338 355 343 331 335 321 316 308 291 284 280 275 267 266 267 265 268 272 266 270 269 265 262 254 252 252 249 250 254 258 265 279 334 360 306 283 282 281 278 274
452 422 403 369 376 332 314 313 319 313 315 319 312 309 314 326 336 339 318 325 317 309 299 280 279 276 280 272 270 271 270 270 269 269 268 266 266 265 262 257 259 263 269 288 292 312 370 308 279 272 272 262 260 252
434 393 375 369 360 341 335 326 325 326 334 346 359 324 335 351 349 327 327 326 321 316 305 292 284 275 275 275 272 276 271 265 263 264 266 213 267 263 265 269 270 271 281 289 321 347 318 274 267 267 256 249 239 223
431 388 384 368 358 347 342 343 342 340 340 339 334 342 339 336 310 308 333 325 328 318 321 299 288 282 278 277 273 270 270 270 271 265 268 268 272 276 282 282 269 278 301 322 340 348 270 266 255 257 243 236 236 233
457 419 390 371 369 363 357 355 352 350 353 349 352 350 343 338 335 341 321 313 336 325 315 309 294 293 279 277 275 273 277 277 275 281 284 278 274 292 297 284 284 299 328 349 349 274 262 260 257 243 248 243 239 237
463 468 429 405 380 378 370 376 374 371 366 365 361 360 350 343 344 352 364 338 321 330 327 314 301 296 290 284 281 281 279 282 285 290 289 289 297 303 303 288 291 323 346 334 278 256 257 256 248 230 234 232 230 232
375 461 478 465 415 407 396 371 380 365 368 365 355 346 346 359 363 374 354 332 332 333 333 330 311 296 293 289 287 286 292 293 290 288 288 295 305 309 308 297 327 354 297 271 259 257 252 242 232 232 218 233 231 222
339 335 446 453 470 494 470 408 414 374 375 376 378 376 382 389 419 417 356 329 177 335 335 326 317 304 302 298 299 303 297 293 294 299 307 313 322 333 285 348 346 283 265 260 255 251 245 232 238 229 234 224 223 221
337 345 338 329 411 477 455 485 478 457 464 453 450 446 447 476 526 540 347 343 348 338 330 322 317 313 313 310 308 308 309 314 317 321 350 377 355 348 354 316 285 261 261 257 246 250 237 236 236 225 221 217 217 224
351 350 365 365 342 333 327 343 385 450 484 476 473 379 202 478 416 365 343 349 326 247 316 317 315 317 315 317 316 322 331 353 351 354 379 326 335 342 265 282 249 261 250 243 239 241 238 226 223 217 220 223 224 226
253 379 377 376 368 350 337 339 333 336 314 349 353 358 341 324 320 321 330 316 319 324 326 330 334 339 338 347 353 348 342 357 350 323 313 330 260 265 274 271 259 247 241 247 234 223 222 219 222 223 219 224 225 231
345 371 255 360 377 397 429 366 335 323 323 326 317 311 302 296 307 308 312 313 326 330 331 324 328 328 331 337 354 367 343 301 310 307 291 257 261 257 254 249 250 243 229 221 224 220 220 222 218 220 226 234 234 233
359 289 344 361 366 380 499 483 467 335 304 319 316 317 305 315 318 321 326 332 335 355 363 410 400 383 373 342 314 298 284 286 284 275 262 256 258 253 246 234 226 224 223 222 218 215 214 218 226 231 233 227 230 235
303 320 293 366 364 367 381 386 411 431 332 321 323 322 335 343 350 378 359 353 349 348 348 337 316 293 278 274 276 277 284 276 257 257 258 249 234 234 229 225 223 222 217 211 218 227 226 226 226 224 226 235 237 236
269 279 289 291 296 300 270 372 383 380 373 366 366 378 382 361 308 308 302 290 285 278 272 270 269 268 274 279 264 251 260 246 242 234 232 233 226 228 222 223 220 217 223 230 225 226 229 228 230 238 242 241 241 246
266 267 270 271 272 269 270 273 275 268 273 274 276 274 272 271 270 273 271 268 269 267 265 262 269 247 240 237 238 234 236 231 232 233 231 225 224 221 222 222 228 225 226 228 235 241 245 245 246 246 249 249 251 247
263 259 267 270 271 271 270 271 270 273 273 271 269 268 268 268 265 265 263 260 256 250 245 239 236 236 237 235 233 233 229 229 227 224 224 215 225 230 238 243 244 238 235 232 230 237 239 244 247 247 246 249 253 258
265 263 262 261 255 255 255 253 254 254 251 250 253 252 251 248 242 241 238 242 242 239 240 236 236 237 236 232 226 228 230 224 230 227 223 217 226 234 238 233 227 231 227 223 226 229 234 234 245 258 260 262 264 263
261 254 258 257 256 256 253 254 252 254 249 248 247 237 236 242 238 240 242 238 239 239 240 236 231 228 230 234 225 235 233 225 221 227 240 224 227 227 231 227 228 234 232 227 241 240 231 242 242 259 264 264 263 260
256 263 263 255 249 250 251 247 250 244 247 245 245 247 244 242 241 237 234 234 232 230 231 234 236 240 238 234 226 229 222 224 223 240 238 233 228 223 235 246 222 228 227 226 233 236 234 247 259 272 273 270 271 270
254 254 252 256 254 254 258 258 249 247 243 242 242 240 243 240 234 235 231 235 239 233 235 236 236 230 223 231 222 224 227 225 224 213 215 235 234 228 226 235 233 230 227 230 237 240 243 254 266 273 276 278 274 266
247 252 253 255 253 246 252 251 251 248 243 243 240 238 230 231 236 241 239 231 231 235 235 234 234 229 236 235 244 231 247 233 231 234 231 237 233 225 226 232 233 233 235 233 245 247 269 269 272 277 275 269 267 274
266 269 265 253 249 252 250 246 242 239 238 238 242 241 237 239 237 240 238 233 236 239 233 230 235 237 236 235 239 238 238 221 227 238 227 229 234 234 232 232 238 237 248 249 249 267 272 275 276 277 278 278 280 281
262 260 251 249 256 254 249 257 251 246 244 238 240 240 237 234 237 238 235 234 233 233 235 239 243 235 227 241 236 228 227 232 233 232 236 240 238 236 234 238 243 246 250 263 273 277 283 285 285 284 281 281 288 294
273 270 264 262 257 251 254 260 256 249 246 248 246 242 239 238 238 241 241 239 240 240 242 244 237 236 230 235 236 233 231 234 237 238 234 232 241 244 248 250 251 259 270 278 284 288 289 288 286 286 290 302 310 317
277 277 271 271 267 262 257 249 252 250 250 251 254 256 250 252 256 254 251 246 245 245 247 246 241 240 236 234 236 237 238 240 242 241 241 246 250 256 265 265 269 280 287 292 295 296 293 293 298 308 323 333 366 393
295 287 284 281 277 276 272 267 266 266 263 249 249 244 243 244 246 245 243 242 240 240 240 240 239 242 242 243 246 247 248 249 250 255 258 260 261 264 276 283 294 302 304 302 299 303 311 333 364 399 394 389 388 384
324 319 314 308 300 289 282 278 274 274 271 271 273 272 265 257 254 254 254 254 253 253 253 253 253 253 254 254 253 252 255 260 262 265 265 276 287 298 310 316 315 310 310 322 367 378 399 393 389 380 387 372 344 326
414 397 377 347 324 312 308 303 299 296 292 287 285 282 277 276 275 276 273 271 271 269 269 269 268 266 264 263 263 265 270 277 284 293 307 321 325 323 321 323 354 365 359 385 396 387 382 385 381 356 333 322 309 292
430 422 414 410 400 383 363 347 336 327 319 308 300 296 294 291 285 284 284 281 281 277 277 277 275 276 278 286 291 294 311 323 333 332 329 340 361 362 355 346 341 381 383 383 380 376 350 331 322 316 307 292 285 284
444 433 422 413 405 396 403 401 397 386 375 364 354 345 338 330 324 316 317 317 316 315 315 317 320 327 335 342 350 355 362 365 359 349 340 340 342 340 334 334 362 360 352 341 328 319 314 311 307 307 292 283 285 277

GFSWCAN_2pvu_pres_150.txt.gz
Presure
400 419 423 404 399 404 417 428 457 453 404 385 399 346 351 372 319 316 314 295 301 312 306 310 302 302 296 289 282 284 278 283 286 280 275 262 271 273 274 268 262 268 262 256 257 254 254 252 251 239 237 246 242 244
401 423 407 407 394 402 415 425 448 490 394 378 382 338 361 342 321 316 303 303 311 329 317 299 302 303 298 296 285 282 289 281 284 278 280 272 265 262 258 265 263 256 253 261 261 254 251 246 251 253 248 242 242 246
401 420 417 391 399 408 425 441 473 478 376 391 348 333 320 318 317 299 294 289 317 317 311 298 296 297 294 293 288 287 284 278 277 273 267 265 264 269 265 264 260 262 262 262 261 254 254 257 262 263 260 258 256 262
415 413 398 413 434 429 442 449 446 451 412 378 348 321 306 315 303 295 291 290 297 306 317 313 295 290 291 285 277 281 290 284 277 272 275 266 266 268 262 259 268 260 257 260 263 263 267 265 265 262 264 269 272 275
396 418 420 414 414 394 387 398 409 377 378 360 326 313 324 307 287 281 286 292 300 299 331 322 310 292 286 281 277 282 276 277 273 272 272 277 271 274 277 272 262 262 262 261 263 266 270 267 265 263 267 270 276 291
438 406 395 366 366 361 365 368 372 383 341 323 322 323 297 291 291 302 299 310 315 311 326 323 317 312 292 283 282 279 277 271 273 274 277 275 274 270 269 266 257 259 266 264 265 270 263 263 264 267 273 281 296 381
392 395 354 349 345 352 355 348 345 338 329 311 300 296 293 291 285 298 289 300 302 307 321 323 327 319 306 294 286 281 276 276 279 278 281 278 274 272 264 258 254 240 256 258 176 246 200 168 265 281 279 299 353 279
398 358 347 343 335 335 312 316 299 307 310 305 312 304 293 292 292 300 303 304 309 306 306 312 318 327 325 309 291 285 280 280 281 269 267 269 273 267 265 247 248 256 236 268 261 264 264 263 282 286 298 341 275 267
383 356 343 333 334 319 325 313 307 292 321 309 308 309 303 303 296 301 308 310 323 329 322 311 308 309 322 333 317 292 287 287 282 276 274 274 264 266 227 243 256 222 259 254 193 268 236 282 288 280 346 277 260 263
377 356 342 340 327 325 320 297 292 323 324 314 326 318 310 307 307 304 292 323 306 338 335 325 322 310 314 324 329 322 305 294 291 285 284 277 271 265 263 258 262 266 266 267 267 261 235 284 307 368 308 256 258 252
378 368 354 337 347 335 311 311 319 313 325 317 310 320 301 317 295 290 305 315 322 299 291 303 309 312 314 309 314 331 320 305 298 283 290 279 266 266 268 269 270 271 168 283 295 293 276 332 377 287 259 256 256 254
396 359 371 350 355 322 305 317 321 319 305 316 323 312 326 313 316 327 321 327 329 331 331 277 310 318 318 320 320 340 323 317 304 291 284 279 273 277 279 280 234 208 294 295 312 328 385 365 273 258 253 254 248 241
421 393 378 360 371 356 353 338 324 328 319 319 297 274 311 312 308 323 314 317 319 328 333 332 331 316 306 306 348 327 330 315 312 307 290 283 285 289 292 298 307 306 315 386 401 387 295 270 257 252 251 242 245 233
424 426 373 347 377 364 351 352 345 347 245 344 342 258 345 352 350 348 339 352 350 354 360 362 346 354 349 355 315 334 334 315 313 311 301 300 299 283 209 316 366 382 371 319 298 277 263 254 253 253 248 238 236 225
340 446 433 421 367 305 314 318 253 309 264 359 362 371 361 376 385 389 376 433 448 479 396 388 381 377 384 332 334 341 336 329 319 309 315 322 329 340 378 355 303 292 286 283 271 263 260 252 244 244 230 220 219 216
340 358 364 413 369 403 429 400 379 362 345 366 340 362 351 360 381 388 352 354 334 337 338 338 339 346 342 338 327 317 316 318 321 327 339 359 368 295 290 284 279 276 270 267 264 250 248 237 226 222 220 219 224 225
345 329 341 322 329 317 317 328 323 323 321 321 327 329 330 331 335 344 343 339 339 356 350 353 352 348 329 329 323 324 335 338 355 364 295 290 283 281 275 271 275 272 263 250 238 233 224 224 218 219 222 224 229 228
283 290 356 353 339 334 335 335 342 346 347 345 345 338 336 333 330 329 332 337 337 333 329 327 331 338 341 338 337 310 295 282 281 281 282 276 279 276 271 257 246 238 231 231 231 225 221 217 225 226 234 227 225 227
273 275 272 270 278 299 319 338 338 343 347 347 346 346 348 351 357 358 364 370 368 333 326 294 291 289 284 282 280 277 277 276 280 272 259 248 245 243 238 236 235 228 223 223 225 225 227 232 228 231 228 225 224 217
255 256 263 269 272 273 274 275 279 278 282 279 282 281 281 281 281 280 280 280 280 279 277 278 280 275 276 278 278 271 264 250 247 245 243 237 236 230 225 215 222 225 226 230 231 235 231 226 228 223 223 230 224 225
255 255 256 255 252 256 256 261 265 268 270 268 266 271 272 265 263 260 259 259 261 263 264 264 260 256 256 252 247 243 238 242 240 234 231 231 232 229 226 229 225 220 226 224 223 225 227 222 220 236 231 218 226 229
256 246 248 252 251 244 247 250 246 246 246 246 249 254 255 250 242 250 251 244 246 247 251 249 244 241 243 243 240 235 235 232 234 232 230 226 227 234 235 216 223 223 230 230 216 219 229 231 225 229 232 232 235 239
262 265 261 255 250 252 252 243 245 244 242 244 240 241 242 245 225 245 233 243 238 239 241 240 236 233 230 229 228 233 233 236 228 227 229 229 226 222 217 221 221 226 229 230 216 217 221 225 228 234 239 239 238 240
245 269 252 259 252 256 253 246 246 247 239 241 243 243 244 244 237 239 233 238 242 239 237 239 236 234 233 237 238 233 236 234 231 232 228 224 225 226 222 225 232 234 228 224 230 226 224 232 237 240 240 243 244 251
278 255 265 243 255 250 249 249 252 254 232 232 233 236 239 242 239 240 238 240 233 234 232 226 239 238 230 233 236 231 234 230 228 225 234 235 239 239 243 241 233 237 238 236 225 234 236 238 239 242 243 250 252 258
276 267 266 261 255 255 250 250 253 250 251 251 250 239 233 231 233 237 239 239 240 241 238 240 235 235 234 230 233 240 240 234 226 232 242 246 243 237 237 238 235 233 239 239 235 236 238 242 246 249 252 260 268 279
321 305 283 278 269 267 259 257 255 253 250 249 250 250 249 246 246 241 234 227 232 227 232 235 237 238 242 244 240 239 242 239 236 234 231 231 231 237 241 243 242 237 237 240 242 245 250 251 255 264 266 278 281 290
403 377 339 327 312 294 284 275 273 264 263 256 254 247 250 250 250 248 254 250 246 245 244 241 241 240 241 239 238 237 237 239 241 242 246 247 247 249 246 242 241 243 249 250 252 255 261 266 268 277 284 292 296 333
272 298 420 421 409 391 370 326 311 300 290 281 275 269 265 262 259 258 250 251 253 256 251 245 240 240 240 241 240 239 239 239 237 237 239 245 247 248 252 253 254 258 267 266 266 270 276 281 293 294 303 354 361 349
262 270 274 277 332 424 432 423 408 393 377 359 342 325 304 295 282 278 271 266 263 263 262 256 255 253 253 251 251 251 254 254 255 257 260 265 268 267 268 270 272 275 278 281 287 295 300 302 334 362 353 340 353 379
265 256 259 267 273 278 288 354 438 431 424 414 404 392 378 363 349 335 323 312 304 300 298 296 291 288 284 278 279 278 276 285 287 289 289 290 289 291 293 295 298 301 305 310 316 347 363 354 342 343 332 346 349 338
256 258 266 256 262 267 271 278 281 301 433 429 423 417 408 400 388 378 370 359 349 343 337 331 327 323 320 318 316 316 315 315 313 312 312 315 317 319 318 320 328 354 356 356 345 345 339 327 348 338 333 342 333 317
254 253 256 258 263 257 259 266 270 276 281 295 364 424 415 409 405 402 401 396 390 387 382 376 373 368 363 360 357 354 351 350 351 353 355 356 355 357 354 339 337 338 337 331 331 327 330 343 351 338 336 336 319 307

GFSWCAN_2pvu_pres_153.txt.gz
Presure
356 367 373 382 410 407 434 430 412 420 447 484 467 401 351 354 366 375 347 324 312 312 314 322 321 322 321 318 311 306 308 295 292 291 284 282 287 285 287 278 278 282 276 265 265 262 264 255 251 256 257 255 252 249
364 366 370 381 412 407 435 412 404 411 424 452 487 427 378 337 348 384 349 322 309 296 282 293 300 328 305 304 301 296 302 304 295 289 287 286 289 278 285 281 274 276 262 270 270 268 261 254 255 250 256 257 252 248
370 371 369 387 411 429 406 403 401 407 420 442 480 421 377 349 338 376 333 302 303 286 295 295 297 310 293 299 309 298 298 304 302 295 288 282 279 271 278 276 277 273 274 274 258 258 252 247 254 259 253 253 258 256
373 374 395 417 420 426 402 398 405 414 424 450 461 388 387 334 335 336 310 307 303 300 300 295 308 310 295 303 298 297 293 287 294 299 286 281 275 278 276 278 279 268 255 255 257 252 249 258 260 257 257 260 264 260
385 412 429 401 414 419 422 426 425 435 434 478 385 382 344 325 345 321 319 300 295 290 270 295 300 301 310 308 289 293 292 287 284 287 289 286 287 281 281 277 264 256 250 251 255 247 260 263 264 263 264 260 245 265
459 409 438 402 392 391 395 414 454 472 483 375 391 338 318 340 322 304 304 300 288 287 297 295 298 315 309 303 294 292 291 291 295 290 285 292 283 283 279 271 254 255 253 254 263 267 265 265 262 265 270 262 263 269
431 382 366 357 360 361 379 413 451 414 398 349 329 328 331 321 298 293 293 284 283 284 292 296 288 284 294 312 310 294 289 281 284 289 294 284 291 290 279 263 260 257 261 265 262 161 262 264 262 208 157 190 260 276
374 355 360 360 361 365 385 429 368 373 347 333 318 305 300 298 304 303 286 281 284 291 295 289 301 302 305 326 333 307 291 283 282 280 279 282 285 285 280 258 254 258 261 266 264 260 257 195 260 260 265 258 265 291
355 361 358 354 357 351 378 401 385 348 332 322 310 294 298 290 296 286 283 278 281 278 285 295 303 297 301 314 325 333 304 294 287 281 278 286 287 283 267 247 270 261 267 261 266 258 261 185 258 238 268 255 282 293
344 342 341 346 332 340 360 351 336 324 320 303 306 305 294 297 298 281 287 286 291 297 298 285 284 292 294 304 315 315 332 328 298 286 287 284 274 269 275 233 267 267 266 267 256 258 261 258 261 228 269 279 294 327
353 349 338 345 297 324 325 300 331 310 310 289 292 298 295 301 298 294 295 305 302 312 315 301 307 310 332 325 312 319 321 331 343 299 295 293 278 281 278 271 269 265 269 207 265 196 171 271 270 277 281 301 340 291
357 348 322 343 337 317 313 326 310 316 296 294 291 309 302 304 295 299 303 311 308 311 293 180 289 305 331 320 322 320 323 331 326 337 347 296 288 289 285 278 280 275 275 275 223 278 281 279 290 303 317 358 284 258
358 318 316 313 335 320 328 316 319 319 312 307 309 307 305 305 295 306 300 282 275 278 296 306 310 324 295 295 301 311 319 322 328 341 335 317 314 304 296 292 298 290 284 285 217 295 301 300 335 413 307 281 251 253
359 346 324 329 266 292 243 325 240 257 279 346 172 287 321 319 311 314 310 312 310 311 312 316 318 321 337 327 354 322 332 347 340 328 317 314 315 308 300 297 211 298 298 305 310 321 382 391 301 283 262 256 253 249
371 343 321 328 343 335 342 322 298 258 330 331 331 325 318 305 324 321 319 317 321 322 321 331 337 342 326 361 357 363 365 375 336 315 307 309 316 323 274 315 313 316 322 352 382 346 293 280 267 254 255 251 246 233
425 398 394 369 350 341 343 331 332 333 337 337 337 338 342 348 348 331 330 316 354 355 349 346 412 401 378 371 393 417 320 324 323 318 316 318 322 324 330 330 359 374 328 295 285 277 268 258 251 249 243 226 216 221
357 347 342 344 340 396 394 392 390 341 327 383 350 337 334 346 440 502 511 502 514 448 401 399 346 347 323 337 331 328 322 323 328 333 344 345 346 370 356 317 290 282 280 278 265 259 254 249 240 226 226 223 224 223
291 287 285 341 350 345 341 336 332 331 328 328 329 333 337 340 346 345 341 337 341 338 335 336 331 327 330 331 329 334 332 342 350 354 352 324 292 285 274 273 271 267 263 260 247 243 231 228 226 222 225 226 232 237
265 268 279 280 279 282 291 311 337 340 357 362 359 357 353 346 340 336 332 331 338 344 349 346 343 345 346 346 335 335 309 301 292 290 283 273 273 273 270 260 251 247 239 228 227 226 226 229 228 229 236 234 225 222
259 256 260 263 251 269 269 271 274 275 278 280 287 293 293 289 286 288 291 290 291 293 292 295 295 297 292 288 284 286 279 275 270 262 256 252 248 245 241 239 233 224 229 229 228 229 236 236 233 228 225 228 230 225
249 246 253 253 252 252 254 251 256 262 264 247 245 248 251 259 259 266 268 270 270 270 272 270 272 269 266 263 259 258 251 248 245 244 236 240 238 235 235 233 232 223 220 226 229 224 214 225 229 224 225 219 219 230
261 252 256 254 249 255 251 249 247 250 252 252 254 244 235 248 250 249 245 248 254 253 251 249 250 248 246 241 237 236 240 242 235 232 229 232 233 228 233 236 236 232 225 219 222 224 225 230 229 229 231 225 221 221
256 254 254 259 259 251 243 249 247 244 244 249 251 246 252 240 235 246 243 241 238 241 244 243 237 240 239 237 238 237 236 235 236 238 226 222 231 237 234 229 226 224 223 223 222 222 227 231 231 232 226 225 232 230
285 270 261 256 244 252 255 246 252 245 234 241 241 246 240 244 242 241 239 231 241 243 237 225 235 240 242 238 231 233 239 240 235 236 237 234 225 225 224 224 226 229 233 236 236 234 234 233 236 239 237 230 237 240
295 290 288 283 275 265 253 253 256 244 248 251 249 243 246 239 237 238 241 246 241 243 233 233 237 237 236 237 243 242 234 230 233 233 234 234 230 231 229 226 227 234 242 244 243 236 231 233 237 238 241 243 238 239
358 328 304 297 291 284 279 275 273 259 252 252 256 255 249 245 248 243 241 241 236 235 234 235 235 234 240 232 239 242 242 238 234 235 237 239 241 243 240 238 238 233 229 230 231 236 238 241 243 243 242 242 249 250
266 268 315 374 357 337 303 296 289 282 277 275 274 267 258 250 251 254 254 247 247 247 238 238 239 239 242 240 239 237 237 237 239 239 238 237 237 238 240 239 241 241 242 245 248 247 245 245 245 248 253 256 262 268
260 253 260 267 272 375 393 380 364 352 320 297 286 280 274 272 271 270 266 265 260 258 250 251 251 251 247 246 239 236 236 238 239 242 247 249 249 249 246 247 249 250 250 249 249 248 252 258 263 265 265 270 275 279
245 250 255 247 252 264 267 273 292 422 413 396 373 357 346 316 297 284 277 276 274 272 272 267 261 261 262 262 260 258 253 251 249 251 254 255 256 257 256 256 257 259 258 259 262 263 265 269 276 280 284 291 295 303
240 243 246 250 252 248 251 259 267 271 280 297 441 429 416 403 390 373 355 338 321 307 293 286 280 276 274 273 273 273 274 272 271 270 268 268 269 268 267 269 271 274 277 278 282 289 295 299 302 307 320 355 354 341
247 246 244 248 251 253 252 252 252 258 265 272 277 287 347 432 423 416 406 397 386 377 367 357 346 335 325 315 308 303 300 298 296 296 294 295 294 296 299 302 305 309 313 316 323 328 337 353 362 350 333 331 328 326
248 253 252 250 254 253 250 255 256 261 256 259 264 271 273 284 292 329 423 420 410 405 393 386 377 366 358 351 347 341 337 333 330 327 324 326 329 334 347 355 355 358 359 361 355 344 334 334 332 330 331 331 330 335
243 243 247 253 253 250 256 254 254 255 256 261 257 257 264 267 272 278 289 303 368 410 403 397 390 386 384 378 376 373 370 366 363 361 361 361 357 354 350 347 342 341 338 335 334 335 335 335 338 335 332 330 331 339

GFSWCAN_2pvu_pres_156.txt.gz
Presure
386 380 382 382 379 374 379 386 390 422 419 423 450 445 358 368 364 350 337 333 335 328 314 307 299 310 327 325 324 325 325 332 331 321 321 312 303 301 298 294 307 306 289 282 280 287 272 265 268 266 264 262 261 255
379 367 363 365 356 359 370 374 376 411 407 422 440 435 445 458 349 367 357 341 325 324 327 322 309 315 322 317 317 319 318 323 320 310 311 305 295 291 298 298 296 289 288 279 281 284 278 269 269 257 260 262 259 256
376 369 365 361 359 370 378 371 386 412 418 430 413 409 422 475 444 351 346 355 342 326 313 312 316 316 323 311 317 317 314 314 311 309 310 299 292 293 291 288 283 285 287 283 279 266 269 273 264 260 264 260 252 255
360 367 366 366 377 370 371 401 407 422 420 403 397 405 433 447 482 379 330 353 349 325 304 305 286 278 281 302 299 310 307 293 305 312 300 292 289 289 284 285 284 278 279 279 275 267 266 258 268 270 256 260 253 251
369 368 368 371 376 393 422 415 416 413 400 393 398 413 434 457 459 344 328 341 338 314 306 304 285 271 272 289 281 285 295 289 290 301 305 300 292 283 283 286 283 279 276 273 273 271 271 272 266 261 256 252 249 258
373 376 381 408 446 435 421 410 400 392 395 401 411 434 458 452 375 326 327 353 318 305 301 295 284 294 283 291 296 296 285 278 289 289 297 298 301 303 298 290 277 277 273 268 266 275 276 263 257 257 254 248 257 254
390 389 382 381 380 384 392 405 435 420 414 420 441 458 395 373 328 320 332 308 300 295 298 281 282 285 286 285 288 293 313 279 291 294 296 297 295 303 302 291 229 263 265 272 277 271 191 260 256 257 265 262 260 259
365 364 359 363 364 387 401 410 428 459 455 462 378 367 355 325 313 323 312 296 292 298 282 279 276 279 285 291 301 293 293 304 312 312 292 293 310 316 296 280 270 276 276 278 272 268 261 259 260 267 261 260 267 208
352 360 375 367 375 483 450 443 495 397 366 365 354 329 319 340 322 311 300 291 291 287 283 283 283 290 282 283 295 309 285 283 294 316 311 303 301 304 291 275 274 272 272 276 278 203 166 268 265 266 261 168 263 262
350 359 369 353 347 378 373 385 372 355 338 325 319 340 299 313 301 295 297 287 290 286 281 281 283 286 290 298 304 301 305 312 324 332 358 330 296 284 288 287 280 281 219 275 273 145 271 269 269 263 267 266 260 269
348 354 361 379 375 356 343 337 334 329 321 315 318 307 294 306 307 287 282 289 286 285 290 291 294 275 258 292 289 290 298 320 332 320 333 351 300 294 294 286 283 278 272 276 276 278 278 270 167 266 196 270 279 280
353 353 354 367 343 326 313 323 324 313 310 310 311 304 297 293 298 290 284 299 285 283 287 287 291 150 302 254 298 305 316 342 342 336 338 322 331 326 301 292 284 279 277 283 279 227 273 272 275 273 272 277 278 284
354 354 360 344 241 320 253 318 319 301 308 307 300 299 293 284 290 294 295 295 298 300 296 292 298 298 295 307 306 299 299 323 329 334 340 311 325 341 336 313 294 295 293 288 284 280 279 279 281 286 284 277 304 315
329 315 353 329 323 256 304 307 324 305 301 297 228 294 305 310 303 230 302 304 314 307 307 303 296 297 294 290 294 298 329 321 343 360 307 320 326 336 338 329 321 315 305 295 293 292 292 288 222 296 315 349 403 385
352 349 339 327 314 327 319 327 315 316 315 301 306 306 304 310 301 293 294 303 298 302 300 300 306 307 307 314 322 345 353 363 330 310 330 324 326 330 334 326 322 318 312 202 266 296 293 308 333 382 371 303 261 257
355 351 343 344 324 327 324 312 311 301 299 302 298 307 303 300 301 306 302 303 309 308 309 312 315 310 344 343 353 348 358 393 421 347 336 329 331 338 335 328 322 316 294 315 319 330 365 358 309 272 256 254 250 244
334 370 357 364 352 353 351 347 347 346 340 340 341 360 367 345 355 350 301 342 366 356 340 354 350 353 373 372 391 433 368 345 352 336 333 328 321 318 310 307 310 310 327 363 358 302 288 263 251 250 250 246 232 227
280 286 291 295 343 353 352 345 343 346 339 342 346 349 348 346 343 341 342 373 401 429 402 391 380 403 423 417 333 326 333 342 349 336 327 323 318 327 337 347 346 333 300 287 271 267 260 254 251 243 228 228 228 228
260 265 271 273 269 275 279 285 290 299 332 336 354 351 349 353 358 366 376 377 365 357 352 337 346 344 349 347 344 347 351 356 352 337 336 331 319 300 287 283 277 271 267 265 259 250 238 232 228 229 229 232 230 235
259 259 253 255 257 261 258 255 260 257 258 267 274 281 283 281 295 324 334 342 343 343 340 336 334 336 330 329 329 325 316 305 292 286 286 284 282 274 269 264 260 254 242 234 233 231 230 227 232 234 235 232 234 233
274 274 269 255 252 254 250 248 258 247 248 252 253 254 254 257 263 268 269 271 273 274 277 275 278 275 271 269 267 267 264 261 260 259 258 254 247 240 238 237 234 229 234 233 225 232 234 231 223 225 225 230 229 228
263 268 267 271 266 264 258 255 256 250 251 250 245 247 251 252 253 249 245 246 243 244 246 247 248 245 242 243 245 245 241 239 238 238 239 238 236 238 236 236 237 236 235 228 222 222 222 227 228 228 227 228 230 229
275 265 259 259 258 256 257 262 259 255 248 244 250 251 248 246 245 246 248 240 240 243 240 237 238 241 240 239 239 239 238 237 238 242 243 237 229 234 232 235 237 235 231 227 226 229 228 230 232 235 238 238 236 229
348 324 307 290 262 258 255 248 251 257 259 254 261 259 251 244 244 247 245 243 240 239 244 241 241 241 240 237 240 239 242 241 245 246 248 244 243 242 241 239 234 232 232 231 227 227 228 233 238 244 244 240 238 235
261 267 275 350 335 315 306 293 266 258 252 252 250 250 251 248 260 257 251 248 245 246 246 241 238 238 241 237 236 234 237 239 242 243 241 241 240 238 238 238 239 241 238 240 243 243 241 239 238 237 236 239 242 243
247 256 256 258 264 280 366 355 338 318 304 297 275 263 257 253 250 246 241 246 245 245 253 253 252 254 250 247 244 242 246 248 240 238 240 239 239 238 237 237 236 237 239 239 242 244 244 244 243 241 243 244 244 248
251 248 242 256 257 255 258 265 273 335 404 386 365 332 310 302 292 279 272 264 259 256 250 250 248 246 245 244 244 249 249 251 251 247 243 239 239 240 241 244 246 244 240 239 240 242 245 249 250 250 250 251 253 257
244 250 252 253 245 254 255 256 254 262 269 272 309 419 408 399 382 357 335 305 297 290 284 275 270 265 264 262 260 257 253 251 250 249 248 249 249 248 248 249 251 251 251 251 251 250 251 253 257 261 263 265 271 275
244 243 244 251 254 256 254 254 256 259 259 258 263 273 273 288 413 417 403 392 381 370 356 343 309 300 291 285 279 274 272 270 268 266 265 264 262 261 262 262 262 264 265 266 268 270 273 276 281 287 290 292 298 308
251 246 238 243 242 250 258 257 255 257 258 257 260 262 259 269 272 274 289 336 426 416 407 396 383 369 359 348 340 329 320 311 305 299 293 290 287 286 286 286 287 289 292 294 297 299 303 309 313 315 318 323 335 346
249 247 246 245 246 246 246 252 253 252 255 256 256 258 259 260 261 265 268 275 279 290 319 416 409 402 394 386 380 373 365 360 354 348 344 340 336 333 331 331 330 330 329 328 329 333 344 354 358 356 347 333 328 328
255 253 253 251 251 249 246 246 246 249 248 248 253 256 257 257 260 258 262 263 268 273 279 280 292 309 404 403 400 393 391 384 378 373 372 366 362 362 363 365 368 368 366 360 350 342 340 341 337 334 334 335 329 328
254 254 256 255 251 249 252 253 247 248 244 244 247 251 254 254 258 260 262 261 256 262 270 271 277 282 286 297 310 386 379 371 366 359 362 359 356 354 348 346 343 338 339 343 336 332 338 339 339 336 334 333 332 333

GFSWCAN_2pvu_pres_162.txt.gz
Presure
332 335 328 327 347 353 389 389 376 408 367 354 350 348 340 336 330 332 335 333 336 348 353 344 339 342 339 327 321 325 329 322 322 321 321 331 327 316 320 324 322 310 296 292 293 283 281 278 289 276 277 274 271 271
350 345 340 340 339 348 385 374 383 365 354 396 387 355 336 346 342 340 336 332 328 330 330 335 337 322 320 321 324 327 319 317 317 314 311 308 307 312 326 323 325 313 299 300 293 280 273 269 271 284 269 273 280 278
338 341 337 341 338 402 382 369 366 367 371 373 400 397 389 350 337 336 340 352 350 353 340 326 323 311 322 319 321 318 319 314 298 300 309 305 299 296 301 319 310 307 299 291 290 279 271 272 277 274 278 274 272 289
342 345 340 342 385 389 373 367 358 364 369 366 364 361 364 368 372 374 366 363 355 352 370 332 311 311 307 316 310 311 300 301 302 292 295 295 295 307 311 306 299 326 307 298 288 282 284 281 276 278 281 267 281 273
363 359 379 394 397 376 372 356 361 351 351 353 355 353 352 353 363 370 378 386 421 425 390 347 318 303 301 299 292 290 302 299 292 287 303 306 305 306 308 302 294 298 305 306 294 291 284 282 291 294 297 279 272 270
485 464 423 396 379 375 368 352 352 348 347 347 361 366 362 356 365 393 413 439 432 466 444 331 332 308 308 301 295 300 290 290 296 300 295 292 295 303 299 299 289 281 297 291 296 304 302 293 291 284 282 296 284 284
388 387 371 378 367 356 354 351 355 361 357 357 361 367 380 391 407 415 406 419 428 428 353 334 334 322 316 301 297 291 292 269 292 277 279 281 285 302 307 291 286 293 296 296 298 294 291 308 310 313 292 287 281 263
381 383 387 387 383 381 382 383 378 374 373 375 381 400 397 395 400 385 400 405 449 362 325 332 315 289 291 281 284 298 283 282 280 284 291 289 289 285 286 295 292 292 289 212 237 294 290 291 293 288 278 273 280 275
397 379 370 362 361 362 369 373 384 407 416 377 407 397 392 393 383 401 402 422 342 333 331 318 289 281 285 277 262 265 281 275 274 275 276 280 271 277 288 281 281 287 303 281 304 309 306 290 283 281 277 280 273 277
444 460 464 407 374 372 382 390 404 424 391 389 396 398 413 415 413 436 375 332 333 341 325 294 283 277 281 271 263 265 279 273 273 282 301 301 311 287 290 298 306 310 321 320 285 291 301 301 298 295 294 286 282 277
364 445 468 484 406 400 409 422 424 429 433 433 430 428 434 410 349 331 305 329 322 313 309 291 292 279 285 274 282 272 279 283 285 287 296 294 282 289 294 295 301 303 352 337 354 324 311 297 285 282 282 280 273 282
349 365 372 387 393 401 398 392 382 363 342 334 328 325 318 314 316 325 337 330 316 306 305 299 304 284 292 280 283 288 292 284 288 286 290 280 276 280 296 306 311 328 342 342 351 313 300 295 304 294 287 282 283 274
324 341 331 347 343 336 332 322 322 323 323 316 329 328 329 310 324 321 319 316 310 298 299 302 257 300 268 284 297 289 295 304 273 297 285 279 277 290 299 302 307 321 349 341 340 316 302 293 294 289 286 281 277 277
332 323 322 300 300 332 312 326 321 310 321 296 309 318 316 312 304 314 318 320 305 297 291 300 294 301 300 293 294 297 305 283 282 270 283 293 298 305 312 290 335 300 385 345 335 321 301 286 283 281 275 275 278 273
325 323 315 310 324 324 326 313 320 321 301 308 311 312 308 285 292 284 303 311 284 282 282 304 304 298 290 289 293 298 284 285 283 286 288 295 280 315 367 430 390 370 361 338 341 325 309 292 283 275 275 279 282 277
344 335 334 326 320 311 307 309 308 304 308 315 298 299 297 302 293 296 294 295 295 296 302 291 292 284 287 286 285 288 292 292 296 283 264 305 341 401 336 323 335 348 346 336 343 329 314 308 297 230 281 287 295 300
284 298 321 325 333 335 344 327 325 322 316 320 310 319 315 311 311 307 315 314 312 315 313 323 315 313 314 321 314 319 310 303 305 305 320 354 395 348 341 335 333 331 336 347 330 314 308 306 309 307 309 312 311 324
260 264 270 276 281 288 290 291 314 316 328 337 324 317 323 322 318 318 314 317 313 316 321 321 326 338 332 331 318 315 308 322 343 346 400 363 330 321 324 329 326 323 321 321 320 316 317 319 313 308 313 343 327 296
265 262 259 257 258 262 266 270 272 272 277 283 285 286 290 317 316 347 342 339 342 330 329 327 340 361 424 424 411 396 316 391 395 367 327 325 319 313 312 315 315 318 318 318 320 313 321 333 339 321 288 269 262 259
277 269 265 262 256 256 256 255 258 256 256 258 262 265 267 269 272 278 285 289 294 312 327 360 363 357 356 361 433 349 348 344 336 331 341 334 335 343 344 337 323 316 312 310 307 303 296 281 269 264 260 259 241 232
254 303 291 279 262 261 259 256 255 252 251 253 248 250 246 248 250 251 256 259 259 263 268 281 287 288 289 293 296 298 298 295 292 293 290 288 287 287 287 286 281 275 273 270 266 262 260 253 237 237 229 228 236 227
255 255 255 262 302 300 280 261 259 260 252 249 248 248 251 248 244 245 246 239 244 245 245 245 246 247 248 254 259 260 275 275 273 271 269 270 270 268 267 263 260 255 247 240 237 238 237 235 236 237 228 225 228 224
250 254 258 257 255 261 260 285 307 295 283 266 256 255 251 250 252 249 246 247 247 247 242 242 244 242 243 241 241 240 240 241 238 242 244 245 242 241 242 244 244 243 240 239 239 240 238 235 233 228 227 228 231 232
251 248 245 252 256 256 251 256 263 277 318 314 312 310 297 264 261 257 255 253 248 248 248 249 249 246 245 242 240 239 240 241 243 243 242 242 243 240 246 241 239 238 237 236 236 235 235 235 233 234 235 234 235 235
247 250 248 250 247 252 255 254 256 256 253 260 264 348 330 319 313 311 307 302 283 266 266 256 252 253 253 251 248 246 247 245 244 242 240 239 241 239 239 240 240 239 240 239 237 238 237 236 235 233 227 229 233 236
256 254 251 255 252 250 248 250 251 253 255 255 253 253 258 263 261 354 383 350 330 317 311 308 301 292 279 272 266 261 256 254 255 255 254 251 251 248 247 248 246 247 246 242 241 241 242 242 242 244 245 244 244 248
266 261 257 256 250 257 254 251 251 249 250 252 251 253 256 253 248 255 260 265 272 334 394 373 345 324 316 308 303 301 298 293 288 285 281 276 271 267 261 258 257 258 255 255 254 252 251 252 253 254 256 257 258 260
262 258 255 261 260 255 252 254 258 255 249 250 253 249 249 251 255 257 253 249 251 257 262 263 267 312 406 395 383 370 358 345 321 309 302 300 295 290 288 286 284 281 279 278 277 276 274 273 272 270 268 266 268 270
267 265 264 262 261 269 263 256 253 256 260 252 252 251 248 243 246 249 252 257 263 258 249 250 253 257 260 263 265 270 315 387 397 391 384 377 372 366 360 357 349 342 332 311 307 300 298 296 294 293 295 310 314 317
275 278 278 272 272 266 263 270 264 258 253 254 256 259 255 254 250 251 243 242 245 252 251 256 258 258 250 251 255 258 260 265 267 269 276 294 355 397 390 387 384 377 373 368 362 356 352 349 348 345 342 338 335 336
315 313 286 279 279 280 270 266 268 263 262 259 256 258 263 257 255 259 255 252 252 241 252 250 257 256 259 258 254 250 253 255 255 259 263 266 271 275 285 325 384 383 373 369 366 366 369 356 355 353 354 341 335 327
340 339 338 322 320 299 300 288 275 273 264 265 264 265 258 257 262 258 257 253 257 251 255 259 250 253 254 259 257 256 257 257 259 257 253 256 259 263 285 277 285 324 374 372 368 363 360 355 352 343 334 330 325 325
348 360 353 358 335 329 333 316 300 288 278 274 266 258 264 264 260 265 259 259 255 252 250 251 254 259 259 255 257 259 259 258 254 254 260 256 253 256 261 268 279 282 296 371 373 373 375 373 368 366 358 346 337 326

GFSWCAN_2pvu_pres_165.txt.gz
Presure
361 359 346 337 322 314 313 316 312 313 332 389 383 358 360 354 354 353 351 350 346 349 347 352 355 360 358 344 339 334 322 333 340 337 327 310 328 333 332 322 320 322 322 315 313 316 316 309 299 295 285 282 282 280
372 360 359 343 334 324 319 318 311 325 328 381 365 385 376 364 351 346 344 340 341 347 353 351 350 340 338 343 343 345 334 326 332 324 313 295 298 312 314 320 320 323 317 313 306 305 301 297 285 281 277 275 278 282
402 373 365 352 335 317 325 331 336 336 330 374 370 360 359 378 376 365 340 339 339 338 338 332 332 329 341 331 318 316 317 313 308 305 296 285 300 310 301 306 309 311 311 319 311 306 301 301 292 270 266 272 276 276
389 376 382 349 324 322 323 329 334 331 380 363 368 366 362 359 358 389 386 347 344 350 350 329 323 319 320 322 340 328 314 313 309 307 297 289 297 302 304 292 300 296 289 288 308 296 299 291 288 278 279 277 274 274
393 389 371 341 331 325 329 328 332 349 369 357 354 358 358 360 377 379 389 380 376 371 356 342 335 315 318 322 316 311 310 316 313 305 303 284 294 308 292 290 284 290 293 314 292 300 315 284 281 282 280 276 273 275
374 366 357 343 333 340 333 340 350 377 361 350 362 359 355 357 355 354 356 358 361 369 385 402 353 339 323 316 312 322 316 309 310 306 290 300 296 288 280 299 305 307 310 311 297 299 301 312 290 285 281 277 275 269
469 416 374 368 361 362 370 385 381 356 351 351 342 349 346 345 351 356 359 362 367 382 418 475 431 333 330 313 312 317 305 303 292 282 286 294 277 297 285 284 299 305 301 298 299 302 298 306 304 307 295 284 288 282
398 398 408 406 397 387 382 370 360 356 352 348 348 351 355 358 361 362 369 383 413 427 439 457 425 349 325 306 301 295 292 287 296 294 289 287 296 297 282 282 280 290 297 297 297 300 302 298 297 297 302 244 305 308
398 371 383 383 377 371 369 366 361 359 358 361 366 369 369 366 397 396 411 404 413 442 389 351 329 344 313 293 296 288 284 285 289 293 294 290 276 280 278 284 292 293 276 283 291 295 300 303 192 269 298 298 298 304
463 423 382 365 363 368 361 363 368 377 393 392 408 384 400 402 398 400 396 417 394 350 337 345 336 324 304 289 277 289 295 287 285 293 288 278 278 280 274 276 283 287 284 293 291 296 311 351 341 305 296 299 291 283
505 488 424 379 379 381 379 389 401 395 388 390 397 409 415 410 427 449 427 345 331 338 326 308 301 283 291 294 274 282 284 292 280 284 273 274 278 280 230 280 270 261 287 300 313 317 330 370 316 314 302 304 305 299
389 470 441 429 429 430 424 427 439 458 407 371 366 367 373 372 381 341 326 330 315 305 301 301 288 302 285 301 279 278 278 273 269 261 272 289 284 274 217 207 294 298 299 297 329 326 328 338 357 313 301 300 297 290
337 329 316 323 343 340 369 371 367 358 350 342 340 334 326 316 310 316 320 316 301 298 293 280 287 295 142 222 292 287 277 276 282 277 280 270 281 274 263 267 284 297 300 300 308 332 323 339 355 331 317 301 289 284
339 327 333 320 326 349 321 336 327 322 317 320 327 336 301 313 323 325 321 317 294 301 303 294 287 288 286 297 282 279 284 294 273 258 264 274 279 287 290 285 270 300 336 380 313 436 343 347 355 321 299 292 300 298
343 326 329 323 314 314 311 311 297 308 325 304 296 320 298 292 321 319 282 303 314 277 284 294 304 299 290 296 301 283 283 281 274 275 280 285 289 284 258 307 316 373 391 341 378 392 354 344 351 311 299 295 292 290
275 297 337 334 329 337 325 323 312 313 319 312 312 307 305 306 298 291 285 305 286 292 297 281 312 316 288 284 299 293 284 290 288 270 266 285 293 300 316 339 403 302 339 344 349 336 335 344 337 307 292 287 285 282
251 258 264 271 280 298 331 343 333 340 327 322 315 307 310 309 310 311 303 306 306 308 307 292 306 302 289 298 303 295 295 288 279 290 289 309 314 328 339 394 331 330 330 333 333 340 343 342 330 305 292 288 289 288
269 258 254 257 260 261 263 271 279 286 326 331 336 337 332 337 325 326 323 324 322 320 327 327 318 334 324 318 311 316 305 310 316 334 332 311 335 351 335 321 323 323 324 325 326 330 334 327 323 317 311 305 305 309
299 279 268 264 257 256 253 254 257 254 259 263 269 272 274 280 300 320 340 343 346 350 337 327 333 329 326 336 357 411 409 400 372 357 332 359 362 322 318 321 319 319 317 315 316 320 323 323 321 321 320 317 322 331
253 265 318 297 281 270 263 256 252 249 249 250 253 254 254 254 257 260 261 262 270 286 294 313 316 354 359 359 360 355 517 513 461 405 380 332 329 336 337 334 331 328 326 327 327 332 336 337 337 335 310 295 276 265
251 250 248 250 263 311 297 284 278 274 265 256 252 249 248 252 252 250 252 252 251 250 251 252 255 256 260 289 293 300 307 309 309 308 308 306 301 299 297 294 293 290 289 289 288 287 283 278 267 263 260 251 238 237
246 249 251 249 248 249 252 257 302 295 286 276 271 269 262 256 253 247 250 251 252 249 249 249 249 247 247 248 247 247 246 245 246 246 247 249 262 264 265 263 264 261 260 259 249 246 245 246 243 237 238 237 237 234
255 253 249 248 252 250 245 247 248 249 292 324 304 286 274 269 271 267 264 262 259 253 251 251 251 249 247 246 246 246 245 244 245 246 247 247 247 246 244 242 243 244 242 239 240 240 240 238 239 239 238 236 235 232
257 253 255 256 251 251 249 249 249 246 252 252 247 269 349 337 315 296 283 280 275 271 267 263 261 256 254 254 253 249 248 249 249 249 248 247 246 245 245 244 247 245 245 242 240 239 239 239 239 239 238 238 237 236
257 255 263 253 255 255 252 251 250 252 248 247 248 250 253 253 257 258 365 363 348 321 298 285 280 274 270 267 262 260 258 256 256 254 253 250 249 247 247 247 246 247 247 248 247 244 241 243 241 240 239 239 238 238
256 265 253 264 264 259 254 256 252 250 251 252 250 250 247 249 249 249 252 257 258 265 304 355 359 349 328 311 294 286 277 273 268 267 266 264 262 260 258 256 254 252 252 252 251 250 251 250 250 250 250 250 250 249
258 261 261 260 266 269 266 258 256 254 258 250 252 248 251 251 252 251 249 248 248 250 255 257 258 263 275 321 329 368 361 355 348 338 329 321 312 305 295 291 287 284 275 272 270 267 265 264 263 263 263 262 262 262
278 268 270 268 267 267 265 268 267 263 257 255 256 255 251 248 248 251 251 253 257 255 251 250 251 252 257 258 258 260 264 267 274 296 308 303 377 378 376 373 367 360 356 353 346 340 334 326 318 306 301 298 296 296
300 297 300 306 296 281 276 273 267 273 269 264 261 255 256 253 250 243 246 243 243 246 249 250 250 253 253 250 249 251 252 253 255 257 260 261 262 264 269 275 276 387 386 395 389 384 377 372 366 361 356 350 346 343
323 324 313 324 285 302 290 282 278 281 266 273 272 271 258 255 254 256 254 254 244 238 239 246 246 250 250 255 254 252 250 250 252 252 252 251 251 252 255 258 264 270 270 279 285 357 384 380 371 365 365 360 355 355
328 321 314 323 323 326 324 312 310 294 286 281 282 276 270 261 254 260 263 253 257 257 257 250 248 248 243 251 253 256 252 252 252 251 253 255 257 255 253 252 254 257 262 268 301 279 286 328 382 378 374 367 360 353
302 348 343 345 347 334 346 344 351 361 307 295 288 276 285 273 271 262 261 262 260 258 251 254 254 256 252 255 256 253 254 250 251 258 259 258 253 251 253 265 259 255 260 255 262 299 276 284 298 341 377 378 377 373
369 365 354 357 361 360 355 355 359 357 319 317 326 310 295 284 282 268 264 265 262 262 261 257 256 253 253 253 254 255 254 255 254 255 253 251 257 261 259 253 252 259 259 261 265 266 275 279 284 302 389 391 393 398